www.pogodaiklimat.ru

Погода и климат >> Архив погоды >> Россия >> Алтайский край >> Чарышское


ПОГОДА в Чарышском

  • Прогноз погоды в Чарышском
  • Монитор погоды в Чарышском

АРХИВ ПОГОДЫ в Чарышском

Время (UTC), дата Ветер
(напр.,м/с)
 
Видим.   Явления Облачность Т
(С)
Тd
(С)
f
(%)
Тe
(С)
Тes
(С)
Комфортность P
(гПа)
Po
(гПа)
Тmin
(С)
Tmax
(С)
R
(мм)
R24
(мм)
S
(см)
18 14.05 СЗ 3 50 км 10 баллов +3.7 -1.5 69 0 0 1006.2 954.7
21 14.05 З 3
{10}
10 км слаб. ливневой дождь 10/10 1000 м
[Cb cap]
+3.0 +0.5 84 -1 -1 1007.0 955.3
00 15.05 СЗ 3
{12}
2000 м слаб. ливневой снег 10/10 1000 м
[Cb cap]
+1.4 -1.3 82 -3 -3 1010.7 958.5 +1.4 2
03 15.05 СЗ 3 4000 м слаб. ливневой снег 10/10 1000 м
[Cb cap]
+1.7 -0.5 85 -3 -3 1013.7 961.3 +1.1
06 15.05 СЗ 3 20 км {ливн. осадки} 10/10 1000 м
[Cb cap]
+2.1 -0.2 85 -2 -2 1017.7 965.3
09 15.05 З 4-12
{12}
50 км 9/9 1000 м
[Cb cap]
+5.6 -2.2 57 +2 +3 1019.9 968.0
12 15.05 СЗ 4
{12}
20 км 10/10 1000 м
[Cb cap]
+5.1 -2.8 57 +2 +2 1020.4 968.4 +6.2 2
15 15.05 ЮВ 1 20 км 10 баллов +1.7 -0.9 83 0 0 1024.9 972.0
18 15.05 штиль 0 50 км {ливн. осадки} 4/3 1000 м
[Cb cap Ac cuf]
+0.1 -1.2 91 -1 -1 1025.2 972.0
21 15.05 штиль 0 20 км 10/10 1000 м
[Cb cap]
-1.1 -2.1 93 -2 -2 1025.4 972.0
00 16.05 штиль 0 50 км 8/4 1000 м
[Cb cap Ac inh]
-0.6 -1.9 91 -2 -1 1024.7 971.3 -1.4 0.5
03 16.05 В 1 50 км 9/0
[Ac trans]
+4.2 +0.2 75 +3 +4 1024.4 972.0
06 16.05 С 1 50 км 10/5 1000 м
[Cb cap Ac trans]
+4.9 -3.4 55 +4 +4 1024.3 972.0
09 16.05 СЗ 4 50 км 6/6 1000 м
[Cb cap]
+8.7 -4.1 40 +6 +9 1022.2 970.7
12 16.05 СЗ 3
{10}
50 км 4/3 1000 м
[Cb cap Ci fib]
+7.5 -4.1 44 +5 +7 1021.7 970.0 +9.1
15 16.05 Ю 1 50 км 6/3 1000 м
[Cb cap Ci fib]
+3.2 -1.2 73 +2 +2 1024.6 972.0
18 16.05 штиль 0 50 км ясно -1.6 -3.2 89 -3 -3 1025.5 972.0
21 16.05 В 1 50 км 10/0
[Ac und]
-2.2 -3.5 91 -5 -5 1025.7 972.0
00 17.05 СЗ 1 20 км туман на расстоянии 10/0
[Ac und]
-1.1 -2.5 90 -3 -3 1026.2 972.6 -2.8
03 17.05 З 1 50 км 6/0
[Ac trans Ci fib]
+3.6 -0.6 74 +2 +7 1027.3 974.7
06 17.05 З 2 50 км 8/8 1000 м
[Cb cap]
+9.3 -3.9 39 +8 +13 1024.8 973.3
09 17.05 Ю 1 50 км 4/4 1000 м
[Cb cap]
+10.2 -6.6 30 +11 +19 1024.7 973.3
12 17.05 СЗ 2 50 км 3/3 1000 м
[Cb cap]
+11.3 -5.7 30 +11 +13 1023.1 972.0 +11.4
15 17.05 Ю 1 50 км 1/0
[Ci fib]
+3.9 -4.6 54 +3 +3 1025.8 973.3
18 17.05 штиль 0 50 км ясно -1.1 -4.3 79 -2 -2 1026.8 973.3
21 17.05 штиль 0 50 км 1/0
[Ci fib]
-3.2 -5.1 87 -4 -4 1025.9 972.0
00 18.05 штиль 0 50 км 1/0
[Ci fib]
-3.0 -4.8 87 -4 -3 1024.3 970.4 -3.8
03 18.05 ЮВ 1 50 км 3/0
[Ac As Ci fib]
+11.3 -4.8 32 +12 +20 1020.2 969.3
06 18.05 СВ 2 50 км 1 балл +18.2 -10.7 13 +19 +33 опасность
простуды
1014.8 965.3
09 18.05 Ю 3 50 км ясно +20.9 -8.6 13
12 18.05 ЮЗ 2 50 км 3/0
[Ci fib]
+22.1 -8.2 12 +20 +23 1009.7 960.9 +22.6
15 18.05 ЮВ 1 50 км 1/0
[Ci fib]
+11.4 -2.4 38 +12 +12 1013.2 962.7
18 18.05 ЮВ 1 50 км ясно +4.9 -1.5 63 +4 +4 1014.4 962.7
21 18.05 СЗ 1 50 км 10 баллов +4.1 -1.7 66 +3 +3 1013.1 961.3
00 19.05 СЗ 1 50 км 6/0
[Ac lent Ci fib]
+4.8 -0.6 68 +4 +5 1011.1 959.4 +3.4
03 19.05 Ю 5-11
{13}
50 км 4/0
[Ac lent Cc]
+22.0 -8.7 12 +20 +23 1008.6 960.0
06 19.05 Ю 4 50 км 10 баллов +23.3 -6.7 13 +21 +21 комфорт 1008.4 960.0
09 19.05 Ю 5-12
{14}
50 км 9/6 1000 м
[Cb cap Ac As]
+22.9 -2.7 18 +21 +22 комфорт 1008.4 960.0
12 19.05 ЮВ 4
{16}
50 км 6/3 1000 м
[Sc diur, vesp Ac cast Ci fib]
+20.5 +3.6 33 +21 +22 комфорт 1009.3 960.4 +24.5
15 19.05 Ю 4 50 км 10 баллов +19.6 +3.3 34 +20 +20 1010.3 961.3
18 19.05 Ю 3 10 км слаб. ливневой дождь 10 баллов +18.3 +3.7 38 +19 +19 1010.5 961.3
21 19.05 Ю 5-13
{10}
50 км {ливн. осадки} 10/10 1000 м
[Cb cap]
+17.1 +4.3 43 +16 +16 1009.1 959.7
00 20.05 Ю 5-11
{11}
50 км {ливн. осадки} 9/8 1000 м
[Cb cap Ac As]
+18.0 +5.4 43 +18 +18 1009.4 960.2 +15.0 0.0
03 20.05 Ю 5
{12}
50 км {ливн. осадки} 3/3 1000 м
[Cb cap]
+19.6 +8.3 48 +20 +24 1009.5 960.6
06 20.05 Ю 4
{11}
50 км {ливн. осадки} 3/3 1000 м
[Cu hum]
+22.5 +6.2 35 +23 +31 комфорт 1008.4 960.2
09 20.05 СВ 1
{10}
50 км {ливн. осадки} 8/8 1000 м
[Cb cap]
+21.8 +6.8 38 +23 +27 комфорт 1008.5 960.0
12 20.05 Ю 3
{11}
50 км {ливн. осадки} 10/6
[Cb cap Ac As]
+21.7 +7.9 41 +23 +23 комфорт 1006.4 957.8 +23.2 0.5
15 20.05 З 2 50 км в посл. час ливневой дождь 10 баллов +16.5 +8.7 60 +17 +17 1008.0 958.7
18 20.05 Ю 4-10
{13}
50 км {ливн. осадки} 9/5 1000 м
[Cb cap Ac As]
+18.8 +7.8 49 +19 +19 1003.7 954.9
21 20.05 ЮЗ 3 50 км 9 баллов +18.7 +8.9 53 +19 +19 1003.4 954.7
00 21.05 Ю 1 50 км в посл. час ливневой дождь 9/9 1000 м
[Cb cap]
+16.9 +10.4 66 +18 +18 1002.5 953.4 +15.6 0.8
03 21.05 СЗ 3 50 км 10 баллов +17.4 +11.0 66 +17 +17 1005.0 956.0
06 21.05 З 2 4000 м ливневой дождь 10 баллов +13.2 +8.9 75 +13 +13 1007.1 957.3
09 21.05 З 1 10 км слаб. ливневой дождь 10 баллов +10.9 +8.8 87 +11 +11 1007.5 957.3
12 21.05 СЗ 1 10 км слаб. ливневой дождь 10/10 600 м
[Cb cap]
+10.7 +8.9 89 +10 +10 1007.9 957.6 +17.8 20
15 21.05 ЮЗ 2 50 км 9 баллов +9.8 +7.2 84 +8 +8 1010.6 960.0

 

Местоположение метеостанции Чарышское (Алтайский край, Россия): широта 51.38 долгота 83.58 высота над уровнем моря 429 м.

В архиве по умолчанию представлена погода в Чарышском за последнюю неделю. Архивные данные за месяц целиком и за предыдущие месяцы, начиная с января 2011 года, Вы можете получить, выбрав интересующий диапазон дат из раскрывающегося списка и нажав кнопку "Ввод!".


*Определитесь, кто Вы:
робот инопланетянин человек

Внимание! Время в таблицах - всемирное. Для получения местного времени необходимо прибавить поправку, которая равна 7 ч.

Смотрите также архив погоды в соседних городах и на ближайших метеорологических станциях:

Погода в Солонешном (Алтайский край, Россия) (59 км)
Погода в Краснощеково (Алтайский край, Россия) (67 км)
Погода в Семинском перевале (Алтай, Россия) (81 км)
Погода в Усть-Калманке (Алтайский край, Россия) (83 км)
Погода в Усть-Кане (Алтай, Россия) (96 км)
Погода в Змеиногорске (Алтайский край, Россия) (101 км)
Погода в Усть-Чарышской Пристани (Алтайский край, Россия) (114 км)
Погода в Белокурихе (Алтайский край, Россия) (117 км)
Погода в Риддере (Восточно-Казахстанская область, Казахстан) (117 км)
Погода в Шипуново (Алтайский край, Россия) (125 км)

Пояснения к столбцам:

Ветер - указаны скорость ветра в м/с - средняя за 10 мин, порывы в срок и между сроками (в фигурных скобках) и направление, откуда дует ветер: С - северный, СВ - северо-восточный, В - восточный, ЮВ - юго-восточный, Ю - южный, ЮЗ - юго-западный, З - западный, СЗ - северо-западный.
Видимость - горизонтальная дальность видимости в метрах или километрах. При видимости от 1 до 10 км при отсутствии осадков обычно наблюдается дымка, при ухудшении видимости до 1 км и менее - туман. В сухую погоду видимость может ухудшаться дымом, пылью или мглою.
Явления - указаны атмосферные явления, наблюдавшиеся в срок или в последний час перед сроком; фигурными скобками обозначены явления, наблюдавшиеся между сроками (за 1-3 часа до срока); квадратными скобками обозначены град или гололедные отложения с указанием их диаметра в мм.
Облачность - указаны через наклонную черту общая и нижняя облачность в баллах и высота нижней границы облаков в метрах; квадратными скобками обозначены формы облаков: Ci - перистые, Cs - перисто-слоистые, Cc - перисто-кучевые, Ac - высококучевые, As - высокослоистые, Sc - слоисто-кучевые, Ns - слоисто-дождевые, Cu - кучевые, Cb - кучево-дождевые. Подробнее классификацию облаков см. в Атласе облаков (PDF).
T - Температура воздуха - температура, измеренная на высоте 2 м над землей.
Td - Температура точки росы - температура, при понижении до которой содержащийся в воздухе водяной пар достигнет насыщения.
f - Относительная влажность воздуха - влажноcть воздуха, измеренная на высоте 2 м над землей.
Te - Эффективная температура - температура, которую ощущает одетый по сезону человек в тени. Характеристика душности погоды. При расчете учитывается влияние влажности воздуха и скорости ветра на теплоощущения человека.
Tes - Эффективная температура на солнце - температура, которую ощущает человек, с поправкой на солнечный нагрев. Характеристика знойности погоды. Зависит от высоты солнца над горизонтом, облачности и скорости ветра. Ночью, в пасмурную погоду, а также при ветре 12 м/с и более поправка равна нулю.
P - Атмосферное давление - приведенное к уровню моря атмосферное давление.
Po - Атмосферное давление - измеренное на уровне метеостанции атмосферное давление.
Tmin - Минимальная температура - минимум температуры воздуха на высоте 2 м над землей.
Tmax - Максимальная температура - максимум температуры воздуха на высоте 2 м над землей.
R - Количество осадков - Количество выпавших осадков за период времени, мм. При наведении курсора мыши на число - период времени, за который выпало указанное количество осадков.
R24 - Количество осадков - Количество выпавших осадков за 24 часа, мм.
S - Снежный покров - Высота снежного покрова, см. При наведении курсора мыши на число - состояние снежного покрова и степень покрытия местности в баллах.